Back to catalog

YAOGAN 7 DEB

AliveMilitaryPO
NORAD 38265·DEBRIS·🇨🇳 China

Launched Dec 9, 2009 from Jiuquan Satellite Launch Center

Loading…

Next Passes (next 24 hours)

TLE

FreshSource: Space-Track

Epoch: Sep 11, 2026, 15:55 UTC

1 38265U 09069B   26254.66353835  .00001443  00000-0  42010-3 0  9998
2 38265  97.8219 148.9767 0208732  14.5426 346.1643 14.33661300864572

Track YAOGAN 7 DEB in real time with AllMySat

Download on the App Store